Time,TemperatureF,DewpointF,PressureIn,WindDirection,WindDirectionDegrees,WindSpeedMPH,WindSpeedGustMPH,Humidity,HourlyPrecipIn,Conditions,Clouds,dailyrainin,SoftwareType,DateUTC
2013-09-20 00:13:00,70.0,-99.9,-100.00,ESE,123,1.0,-999.0,-999,0.07,,,0.21,,2013-09-20 05:13:00,
2013-09-20 00:23:00,70.0,-99.9,-100.00,ESE,123,1.0,-999.0,-999,0.07,,,0.21,,2013-09-20 05:23:00,
2013-09-20 00:43:00,69.0,-99.9,-100.00,South,177,3.0,-999.0,-999,0.04,,,0.22,,2013-09-20 05:43:00,
2013-09-20 00:53:00,69.0,-99.9,-100.00,South,177,3.0,-999.0,-999,0.04,,,0.22,,2013-09-20 05:53:00,
2013-09-20 01:12:00,69.0,-99.9,-100.00,SSE,158,5.0,-999.0,-999,0.01,,,0.22,,2013-09-20 06:12:00,
2013-09-20 01:22:00,69.0,-99.9,-100.00,SSE,158,5.0,-999.0,-999,0.01,,,0.22,,2013-09-20 06:22:00,
2013-09-20 01:43:00,69.0,-99.9,-100.00,SSE,159,3.0,-999.0,-999,0.00,,,0.22,,2013-09-20 06:43:00,
2013-09-20 01:52:00,69.0,-99.9,-100.00,SSE,159,3.0,-999.0,-999,0.00,,,0.22,,2013-09-20 06:52:00,
2013-09-20 02:12:00,69.0,-99.9,-100.00,West,267,2.0,-999.0,-999,0.00,,,0.22,,2013-09-20 07:12:00,
2013-09-20 02:23:00,69.0,-99.9,-100.00,West,267,2.0,-999.0,-999,0.00,,,0.22,,2013-09-20 07:23:00,
2013-09-20 02:42:00,69.0,-99.9,-100.00,West,269,2.0,-999.0,-999,0.00,,,0.22,,2013-09-20 07:42:00,
2013-09-20 02:53:00,69.0,-99.9,-100.00,West,269,2.0,-999.0,-999,0.00,,,0.22,,2013-09-20 07:53:00,
2013-09-20 03:12:00,69.0,-99.9,-100.00,NW,319,2.0,-999.0,-999,0.00,,,0.22,,2013-09-20 08:12:00,
2013-09-20 03:22:00,69.0,-99.9,-100.00,NW,319,2.0,-999.0,-999,0.00,,,0.22,,2013-09-20 08:22:00,
2013-09-20 03:42:00,69.0,-99.9,-100.00,SE,133,2.0,-999.0,-999,0.02,,,0.24,,2013-09-20 08:42:00,
2013-09-20 04:12:00,69.0,-99.9,-100.00,WSW,257,1.0,-999.0,-999,0.03,,,0.25,,2013-09-20 09:12:00,
2013-09-20 04:22:00,69.0,-99.9,-100.00,WSW,257,1.0,-999.0,-999,0.03,,,0.25,,2013-09-20 09:22:00,
2013-09-20 04:44:00,69.0,-99.9,-100.00,SSE,162,1.0,-999.0,-999,0.02,,,0.26,,2013-09-20 09:44:00,
2013-09-20 04:54:00,69.0,-99.9,-100.00,SSE,162,1.0,-999.0,-999,0.02,,,0.26,,2013-09-20 09:54:00,
2013-09-20 05:13:00,69.0,-99.9,-100.00,SSE,163,1.0,-999.0,-999,0.01,,,0.26,,2013-09-20 10:13:00,
2013-09-20 05:23:00,69.0,-99.9,-100.00,SSE,163,1.0,-999.0,-999,0.01,,,0.26,,2013-09-20 10:23:00,
2013-09-20 05:42:00,69.0,-99.9,-100.00,ESE,117,2.0,-999.0,-999,0.00,,,0.26,,2013-09-20 10:42:00,
2013-09-20 05:53:00,69.0,-99.9,-100.00,ESE,117,2.0,-999.0,-999,0.00,,,0.26,,2013-09-20 10:53:00,
2013-09-20 06:12:00,69.0,-99.9,-100.00,SE,134,1.0,-999.0,-999,0.00,,,0.26,,2013-09-20 11:12:00,
2013-09-20 06:23:00,69.0,-99.9,-100.00,SE,134,1.0,-999.0,-999,0.00,,,0.26,,2013-09-20 11:23:00,
2013-09-20 06:42:00,68.0,-99.9,-100.00,SW,230,1.0,-999.0,-999,0.00,,,0.26,,2013-09-20 11:42:00,
2013-09-20 06:52:00,68.0,-99.9,-100.00,SW,230,1.0,-999.0,-999,0.00,,,0.26,,2013-09-20 11:52:00,
2013-09-20 07:12:00,68.0,-99.9,-100.00,SSW,199,1.0,-999.0,-999,0.00,,,0.26,,2013-09-20 12:12:00,
2013-09-20 07:22:00,68.0,-99.9,-100.00,SSW,199,1.0,-999.0,-999,0.00,,,0.26,,2013-09-20 12:22:00,
2013-09-20 07:43:00,68.0,-99.9,-100.00,SW,235,1.0,-999.0,-999,0.00,,,0.26,,2013-09-20 12:43:00,
2013-09-20 07:52:00,68.0,-99.9,-100.00,SW,235,1.0,-999.0,-999,0.00,,,0.26,,2013-09-20 12:52:00,
2013-09-20 08:12:00,69.0,-99.9,-100.00,SW,219,2.0,-999.0,-999,0.00,,,0.26,,2013-09-20 13:12:00,
2013-09-20 08:22:00,69.0,-99.9,-100.00,SW,219,2.0,-999.0,-999,0.00,,,0.26,,2013-09-20 13:22:00,
2013-09-20 08:42:00,69.0,-99.9,-100.00,NNE,28,1.0,-999.0,-999,0.00,,,0.26,,2013-09-20 13:42:00,
2013-09-20 08:53:00,69.0,-99.9,-100.00,NNE,28,1.0,-999.0,-999,0.00,,,0.26,,2013-09-20 13:53:00,
2013-09-20 09:11:00,69.0,-99.9,-100.00,NW,313,6.0,-999.0,-999,0.00,,,0.26,,2013-09-20 14:11:00,
2013-09-20 09:22:00,69.0,-99.9,-100.00,NW,313,6.0,-999.0,-999,0.00,,,0.26,,2013-09-20 14:22:00,
2013-09-20 09:43:00,68.0,-99.9,-100.00,WNW,302,6.0,-999.0,-999,0.00,,,0.26,,2013-09-20 14:43:00,
2013-09-20 09:52:00,68.0,-99.9,-100.00,WNW,302,6.0,-999.0,-999,0.00,,,0.26,,2013-09-20 14:52:00,
2013-09-20 10:12:00,68.0,-99.9,-100.00,NW,306,6.0,-999.0,-999,0.00,,,-99.99,,2013-09-20 15:12:00,
2013-09-20 10:22:00,68.0,-99.9,-100.00,NW,306,6.0,-999.0,-999,0.00,,,-99.99,,2013-09-20 15:22:00,
2013-09-20 10:44:00,65.0,-99.9,-100.00,NW,312,10.0,-999.0,-999,0.00,,,0.26,,2013-09-20 15:44:00,
2013-09-20 10:54:00,65.0,-99.9,-100.00,NW,312,10.0,-999.0,-999,0.00,,,0.26,,2013-09-20 15:54:00,
2013-09-20 11:13:00,65.0,-99.9,-100.00,NW,307,10.0,-999.0,-999,0.00,,,0.26,,2013-09-20 16:13:00,
2013-09-20 11:23:00,65.0,-99.9,-100.00,NW,307,10.0,-999.0,-999,0.00,,,0.26,,2013-09-20 16:23:00,
2013-09-20 11:43:00,66.0,-99.9,-100.00,NW,326,14.0,-999.0,-999,0.00,,,0.26,,2013-09-20 16:43:00,
2013-09-20 11:53:00,66.0,-99.9,-100.00,NW,326,14.0,-999.0,-999,0.00,,,0.26,,2013-09-20 16:53:00,
2013-09-20 12:13:00,67.0,-99.9,-100.00,NNW,327,13.0,-999.0,-999,0.00,,,0.26,,2013-09-20 17:13:00,
2013-09-20 12:24:00,67.0,-99.9,-100.00,NNW,327,13.0,-999.0,-999,0.00,,,0.26,,2013-09-20 17:24:00,
2013-09-20 12:43:00,67.0,-99.9,-100.00,NW,313,7.0,-999.0,-999,0.00,,,0.26,,2013-09-20 17:43:00,
2013-09-20 12:53:00,67.0,-99.9,-100.00,NW,313,7.0,-999.0,-999,0.00,,,0.26,,2013-09-20 17:53:00,
2013-09-20 13:12:00,67.0,-99.9,-100.00,NW,311,8.0,-999.0,-999,0.00,,,0.26,,2013-09-20 18:12:00,
2013-09-20 13:22:00,67.0,-99.9,-100.00,NW,311,8.0,-999.0,-999,0.00,,,0.26,,2013-09-20 18:22:00,
2013-09-20 13:42:00,68.0,-99.9,-100.00,NW,316,10.0,-999.0,-999,0.00,,,0.26,,2013-09-20 18:42:00,
2013-09-20 13:52:00,68.0,-99.9,-100.00,NW,316,10.0,-999.0,-999,0.00,,,0.26,,2013-09-20 18:52:00,
2013-09-20 14:12:00,68.0,-99.9,-100.00,NW,322,10.0,-999.0,-999,0.00,,,0.26,,2013-09-20 19:12:00,
2013-09-20 14:22:00,68.0,-99.9,-100.00,NW,322,10.0,-999.0,-999,0.00,,,0.26,,2013-09-20 19:22:00,
2013-09-20 14:42:00,69.0,-99.9,-100.00,NNW,336,9.0,-999.0,-999,0.00,,,0.26,,2013-09-20 19:42:00,
2013-09-20 14:53:00,69.0,-99.9,-100.00,NNW,336,9.0,-999.0,-999,0.00,,,0.26,,2013-09-20 19:53:00,
2013-09-20 15:12:00,69.0,-99.9,-100.00,NW,321,8.0,-999.0,-999,0.00,,,0.26,,2013-09-20 20:12:00,
2013-09-20 15:22:00,69.0,-99.9,-100.00,NW,321,8.0,-999.0,-999,0.00,,,0.26,,2013-09-20 20:22:00,
2013-09-20 15:42:00,70.0,-99.9,-100.00,NW,315,6.0,-999.0,-999,0.00,,,0.26,,2013-09-20 20:42:00,
2013-09-20 15:52:00,70.0,-99.9,-100.00,NW,315,6.0,-999.0,-999,0.00,,,0.26,,2013-09-20 20:52:00,
2013-09-20 16:12:00,71.0,-99.9,-100.00,NNW,327,6.0,-999.0,-999,0.00,,,0.26,,2013-09-20 21:12:00,
2013-09-20 16:22:00,71.0,-99.9,-100.00,NNW,327,6.0,-999.0,-999,0.00,,,0.26,,2013-09-20 21:22:00,
2013-09-20 16:45:00,71.0,-99.9,-100.00,NNW,330,8.0,-999.0,-999,0.00,,,0.26,,2013-09-20 21:45:00,
2013-09-20 16:55:00,71.0,-99.9,-100.00,NNW,330,8.0,-999.0,-999,0.00,,,0.26,,2013-09-20 21:55:00,
2013-09-20 17:14:00,72.0,-99.9,-100.00,NW,314,5.0,-999.0,-999,0.00,,,0.26,,2013-09-20 22:14:00,
2013-09-20 17:24:00,72.0,-99.9,-100.00,NW,314,5.0,-999.0,-999,0.00,,,0.26,,2013-09-20 22:24:00,
2013-09-20 17:44:00,71.0,-99.9,-100.00,NW,314,8.0,-999.0,-999,0.00,,,0.26,,2013-09-20 22:44:00,
2013-09-20 17:53:00,71.0,-99.9,-100.00,NW,314,8.0,-999.0,-999,0.00,,,0.26,,2013-09-20 22:53:00,
2013-09-20 18:13:00,71.0,-99.9,-100.00,NW,318,10.0,-999.0,-999,0.00,,,0.26,,2013-09-20 23:13:00,
2013-09-20 18:23:00,71.0,-99.9,-100.00,NW,318,10.0,-999.0,-999,0.00,,,0.26,,2013-09-20 23:23:00,
2013-09-20 18:43:00,70.0,-99.9,-100.00,NW,305,8.0,-999.0,-999,0.00,,,0.26,,2013-09-20 23:43:00,
2013-09-20 18:53:00,70.0,-99.9,-100.00,NW,305,8.0,-999.0,-999,0.00,,,0.26,,2013-09-20 23:53:00,
2013-09-20 19:12:00,68.0,-99.9,-100.00,WNW,293,7.0,-999.0,-999,0.00,,,0.26,,2013-09-21 00:12:00,
2013-09-20 19:22:00,68.0,-99.9,-100.00,WNW,293,7.0,-999.0,-999,0.00,,,0.26,,2013-09-21 00:22:00,
2013-09-20 19:42:00,66.0,-99.9,-100.00,WNW,290,5.0,-999.0,-999,0.00,,,0.26,,2013-09-21 00:42:00,
2013-09-20 19:52:00,66.0,-99.9,-100.00,WNW,290,5.0,-999.0,-999,0.00,,,0.26,,2013-09-21 00:52:00,
2013-09-20 20:12:00,65.0,-99.9,-100.00,West,273,3.0,-999.0,-999,0.00,,,0.26,,2013-09-21 01:12:00,
2013-09-20 20:22:00,65.0,-99.9,-100.00,West,273,3.0,-999.0,-999,0.00,,,0.26,,2013-09-21 01:22:00,
2013-09-20 20:42:00,63.0,-99.9,-100.00,West,266,3.0,-999.0,-999,0.00,,,0.26,,2013-09-21 01:42:00,
2013-09-20 20:52:00,63.0,-99.9,-100.00,West,266,3.0,-999.0,-999,0.00,,,0.26,,2013-09-21 01:52:00,
2013-09-20 21:12:00,61.0,-99.9,-100.00,WSW,250,3.0,-999.0,-999,0.00,,,0.26,,2013-09-21 02:12:00,
2013-09-20 21:22:00,61.0,-99.9,-100.00,WSW,250,3.0,-999.0,-999,0.00,,,0.26,,2013-09-21 02:22:00,
2013-09-20 21:42:00,61.0,-99.9,-100.00,WSW,245,4.0,-999.0,-999,0.00,,,0.16,,2013-09-21 02:42:00,
2013-09-20 21:52:00,61.0,-99.9,-100.00,WSW,245,4.0,-999.0,-999,0.00,,,0.16,,2013-09-21 02:52:00,
2013-09-20 22:12:00,60.0,-99.9,-100.00,WSW,250,4.0,-999.0,-999,0.00,,,0.16,,2013-09-21 03:12:00,
2013-09-20 22:22:00,60.0,-99.9,-100.00,WSW,250,4.0,-999.0,-999,0.00,,,0.16,,2013-09-21 03:22:00,
2013-09-20 22:44:00,60.0,-99.9,-100.00,WSW,257,3.0,-999.0,-999,0.00,,,0.15,,2013-09-21 03:44:00,
2013-09-20 22:55:00,60.0,-99.9,-100.00,WSW,257,3.0,-999.0,-999,0.00,,,0.15,,2013-09-21 03:55:00,
2013-09-20 23:14:00,63.0,-99.9,-100.00,West,279,5.0,-999.0,-999,0.00,,,0.12,,2013-09-21 04:14:00,
2013-09-20 23:24:00,63.0,-99.9,-100.00,West,279,5.0,-999.0,-999,0.00,,,0.12,,2013-09-21 04:24:00,
2013-09-20 23:44:00,62.0,-99.9,-100.00,WNW,290,4.0,-999.0,-999,0.00,,,0.08,,2013-09-21 04:44:00,
2013-09-20 23:54:00,62.0,-99.9,-100.00,WNW,290,4.0,-999.0,-999,0.00,,,0.08,,2013-09-21 04:54:00,